TimePST,TemperatureF,Dew PointF,Humidity,Sea Level PressureIn,VisibilityMPH,Wind Direction,Wind SpeedMPH,Gust SpeedMPH,PrecipitationIn,Events,Conditions,WindDirDegrees,DateUTC
12:53 AM,3.9,-0.0,84,30.38,10.0,Calm,Calm,-,N/A,,Overcast,0,2014-02-05 08:53:00
2:53 AM,9.0,5.0,84,30.36,10.0,Calm,Calm,-,N/A,,Overcast,0,2014-02-05 10:53:00
3:53 AM,9.0,3.9,80,30.37,10.0,West,3.5,-,N/A,,Overcast,270,2014-02-05 11:53:00
4:53 AM,10.0,5.0,80,30.38,10.0,Calm,Calm,-,N/A,,Overcast,0,2014-02-05 12:53:00
5:53 AM,9.0,5.0,84,30.38,10.0,Calm,Calm,-,N/A,,Overcast,0,2014-02-05 13:53:00
6:53 AM,9.0,5.0,84,30.40,10.0,WNW,6.9,-,N/A,,Overcast,300,2014-02-05 14:53:00
7:53 AM,9.0,3.9,80,30.41,10.0,WNW,5.8,-,N/A,,Overcast,290,2014-02-05 15:53:00
8:53 AM,10.9,5.0,77,30.42,10.0,NW,10.4,-,N/A,,Overcast,310,2014-02-05 16:53:00
9:53 AM,12.9,6.1,74,30.43,10.0,NW,11.5,-,0.00,,Overcast,310,2014-02-05 17:53:00
10:53 AM,15.1,7.0,70,30.41,10.0,NW,10.4,-,N/A,,Scattered Clouds,310,2014-02-05 18:53:00
11:53 AM,16.0,7.0,68,30.40,10.0,WNW,11.5,-,N/A,,Mostly Cloudy,300,2014-02-05 19:53:00
12:53 PM,15.1,6.1,68,30.38,10.0,WNW,11.5,-,N/A,,Overcast,300,2014-02-05 20:53:00
1:53 PM,16.0,7.0,68,30.35,10.0,NW,12.7,-,N/A,,Overcast,310,2014-02-05 21:53:00
2:53 PM,16.0,6.1,65,30.34,10.0,WNW,11.5,-,N/A,,Clear,300,2014-02-05 22:53:00
3:53 PM,12.9,5.0,71,30.35,10.0,WNW,10.4,-,N/A,,Clear,300,2014-02-05 23:53:00
4:53 PM,8.1,1.0,73,30.36,10.0,West,5.8,-,N/A,,Clear,260,2014-02-06 00:53:00
5:53 PM,8.1,1.9,76,30.36,10.0,WNW,9.2,-,N/A,,Clear,290,2014-02-06 01:53:00
6:53 PM,7.0,1.0,77,30.37,10.0,West,10.4,-,N/A,,Clear,280,2014-02-06 02:53:00
7:53 PM,6.1,1.0,80,30.36,10.0,West,6.9,-,N/A,,Overcast,280,2014-02-06 03:53:00
8:53 PM,1.9,-2.0,83,30.36,10.0,WSW,6.9,-,N/A,,Clear,250,2014-02-06 04:53:00
9:53 PM,1.0,-2.9,83,30.35,10.0,WSW,8.1,-,N/A,,Clear,250,2014-02-06 05:53:00
10:53 PM,1.0,-2.9,83,30.33,10.0,WSW,5.8,-,N/A,,Unknown,250,2014-02-06 06:53:00
11:53 PM,-0.9,-5.1,83,30.33,10.0,SW,4.6,-,N/A,,Partly Cloudy,220,2014-02-06 07:53:00